Location: Palombina Nuova
(43.6167°N, 13.4000°E)
Time: 20:32:07
(UTC+00:00)

Cosmos 1943 - Pass Details

Date: 17 February 2020
Orbit: 832 x 851 km, 71.0° (Epoch: 03 April)

Event Time Altitude Azimuth Distance (km) Brightness Sun altitude
Rises 04:58:41 0° 210° (SSW) 3,363 6.1 -12.3°
Reaches altitude 10° 05:01:07 10° 212° (SSW) 2,434 5.3 -11.8°
Maximum altitude 05:06:41 71° 296° (WNW) 884 3.1 -10.8°
Drops below altitude 10° 05:12:19 10° 21° (NNE) 2,458 5.8 -9.8°
Sets 05:14:47 0° 24° (NNE) 3,399 6.6 -9.4°
